iso_date,Year,Hour,Min,DOY,POS_DOY,Lat,Lon,BP,Ts,Ta,has_bp,has_ts,has_ta,BuoyID,Buoy_Type,Buoy_Owner,Logistics,Hemisphere
2022-08-09T18:30:57Z,2022,18,31,221.7715,221.7715,82.0348,-141.9994,1004.4,2.0,0.7,yes,yes,yes,300534060954360,SVP-BA,EC,RCAF/ICE-PPR,North
2022-08-09T19:00:02Z,2022,19,0,221.7917,221.7917,82.0348,-141.9994,1004.3,1.3,0.4,yes,yes,yes,300534060954360,SVP-BA,EC,RCAF/ICE-PPR,North
2022-08-09T19:59:57Z,2022,20,0,221.8333,221.8333,82.0348,-141.9994,1003.9,1.1,0.2,yes,yes,yes,300534060954360,SVP-BA,EC,RCAF/ICE-PPR,North
2022-08-09T21:00:00Z,2022,21,0,221.875,221.875,82.0438,-141.9712,1003.4,0.8,0.7,yes,yes,yes,300534060954360,SVP-BA,EC,RCAF/ICE-PPR,North
2022-08-09T22:00:02Z,2022,22,0,221.9167,221.875,82.0438,-141.9712,1003.3,-0.3,0.0,yes,yes,yes,300534060954360,SVP-BA,EC,RCAF/ICE-PPR,North
2022-08-09T22:59:57Z,2022,23,0,221.9583,221.875,82.0438,-141.9712,1002.7,-0.5,-0.1,yes,yes,yes,300534060954360,SVP-BA,EC,RCAF/ICE-PPR,North
2022-08-10T00:00:00Z,2022,0,0,222.0,222.0,82.0562,-141.954,1002.1,-0.3,0.2,yes,yes,yes,300534060954360,SVP-BA,EC,RCAF/ICE-PPR,North
2022-08-10T01:00:02Z,2022,1,0,222.0417,222.0,82.0562,-141.954,1001.7,0.0,0.4,yes,yes,yes,300534060954360,SVP-BA,EC,RCAF/ICE-PPR,North
2022-08-10T01:59:57Z,2022,2,0,222.0833,222.0,82.0562,-141.954,1001.2,0.2,0.5,yes,yes,yes,300534060954360,SVP-BA,EC,RCAF/ICE-PPR,North
2022-08-10T03:00:00Z,2022,3,0,222.125,222.125,82.07,-141.9514,1000.5,0.3,0.6,yes,yes,yes,300534060954360,SVP-BA,EC,RCAF/ICE-PPR,North
2022-08-10T04:00:02Z,2022,4,0,222.1667,222.125,82.07,-141.9514,999.9,0.4,0.7,yes,yes,yes,300534060954360,SVP-BA,EC,RCAF/ICE-PPR,North
2022-08-10T04:59:57Z,2022,5,0,222.2083,222.125,82.07,-141.9514,999.3,0.3,0.6,yes,yes,yes,300534060954360,SVP-BA,EC,RCAF/ICE-PPR,North
2022-08-10T06:00:00Z,2022,6,0,222.25,222.25,82.0844,-141.9514,998.7,0.2,0.3,yes,yes,yes,300534060954360,SVP-BA,EC,RCAF/ICE-PPR,North
2022-08-10T07:00:02Z,2022,7,0,222.2917,222.25,82.0844,-141.9514,998.0,0.1,0.2,yes,yes,yes,300534060954360,SVP-BA,EC,RCAF/ICE-PPR,North
2022-08-10T07:59:57Z,2022,8,0,222.3333,222.25,82.0844,-141.9514,997.7,0.3,0.3,yes,yes,yes,300534060954360,SVP-BA,EC,RCAF/ICE-PPR,North
2022-08-10T09:00:00Z,2022,9,0,222.375,222.375,82.0974,-141.938,997.3,0.6,0.6,yes,yes,yes,300534060954360,SVP-BA,EC,RCAF/ICE-PPR,North
2022-08-10T10:00:02Z,2022,10,0,222.4167,222.375,82.0974,-141.938,997.1,0.6,0.6,yes,yes,yes,300534060954360,SVP-BA,EC,RCAF/ICE-PPR,North
2022-08-10T10:59:57Z,2022,11,0,222.4583,222.375,82.0974,-141.938,996.9,0.6,0.6,yes,yes,yes,300534060954360,SVP-BA,EC,RCAF/ICE-PPR,North
2022-08-10T12:00:00Z,2022,12,0,222.5,222.5,82.1086,-141.9074,996.5,0.6,0.7,yes,yes,yes,300534060954360,SVP-BA,EC,RCAF/ICE-PPR,North
2022-08-10T13:00:02Z,2022,13,0,222.5417,222.5,82.1086,-141.9074,996.3,0.7,0.8,yes,yes,yes,300534060954360,SVP-BA,EC,RCAF/ICE-PPR,North
2022-08-10T13:59:57Z,2022,14,0,222.5833,222.5,82.1086,-141.9074,995.9,0.8,0.9,yes,yes,yes,300534060954360,SVP-BA,EC,RCAF/ICE-PPR,North
2022-08-10T15:00:00Z,2022,15,0,222.625,222.625,82.1192,-141.876,995.5,0.8,0.9,yes,yes,yes,300534060954360,SVP-BA,EC,RCAF/ICE-PPR,North
2022-08-10T16:00:02Z,2022,16,0,222.6667,222.625,82.1192,-141.876,995.4,0.8,0.9,yes,yes,yes,300534060954360,SVP-BA,EC,RCAF/ICE-PPR,North
2022-08-10T16:59:57Z,2022,17,0,222.7083,222.625,82.1192,-141.876,995.2,1.4,1.4,yes,yes,yes,300534060954360,SVP-BA,EC,RCAF/ICE-PPR,North
2022-08-10T18:00:00Z,2022,18,0,222.75,222.75,82.1308,-141.8386,995.2,0.8,1.0,yes,yes,yes,300534060954360,SVP-BA,EC,RCAF/ICE-PPR,North
2022-08-10T19:00:02Z,2022,19,0,222.7917,222.75,82.1308,-141.8386,995.0,0.9,1.1,yes,yes,yes,300534060954360,SVP-BA,EC,RCAF/ICE-PPR,North
2022-08-10T19:59:57Z,2022,20,0,222.8333,222.75,82.1308,-141.8386,994.9,0.9,1.1,yes,yes,yes,300534060954360,SVP-BA,EC,RCAF/ICE-PPR,North
2022-08-10T21:00:00Z,2022,21,0,222.875,222.875,82.1428,-141.8102,994.7,1.1,1.4,yes,yes,yes,300534060954360,SVP-BA,EC,RCAF/ICE-PPR,North
2022-08-10T22:00:02Z,2022,22,0,222.9167,222.875,82.1428,-141.8102,994.4,0.9,1.2,yes,yes,yes,300534060954360,SVP-BA,EC,RCAF/ICE-PPR,North
2022-08-10T22:59:57Z,2022,23,0,222.9583,222.875,82.1428,-141.8102,994.4,1.2,1.8,yes,yes,yes,300534060954360,SVP-BA,EC,RCAF/ICE-PPR,North
2022-08-11T00:00:00Z,2022,0,0,223.0,223.0,82.1544,-141.8052,994.3,1.1,2.1,yes,yes,yes,300534060954360,SVP-BA,EC,RCAF/ICE-PPR,North
2022-08-11T01:00:02Z,2022,1,0,223.0417,223.0,82.1544,-141.8052,994.1,1.0,1.7,yes,yes,yes,300534060954360,SVP-BA,EC,RCAF/ICE-PPR,North
2022-08-11T01:59:57Z,2022,2,0,223.0833,223.0,82.1544,-141.8052,994.1,1.1,2.1,yes,yes,yes,300534060954360,SVP-BA,EC,RCAF/ICE-PPR,North
2022-08-11T03:00:00Z,2022,3,0,223.125,223.125,82.1658,-141.8052,993.9,0.8,1.4,yes,yes,yes,300534060954360,SVP-BA,EC,RCAF/ICE-PPR,North
2022-08-11T04:00:02Z,2022,4,0,223.1667,223.125,82.1658,-141.8052,993.7,0.8,1.3,yes,yes,yes,300534060954360,SVP-BA,EC,RCAF/ICE-PPR,North
2022-08-11T04:59:57Z,2022,5,0,223.2083,223.125,82.1658,-141.8052,993.6,0.4,0.7,yes,yes,yes,300534060954360,SVP-BA,EC,RCAF/ICE-PPR,North
2022-08-11T06:00:00Z,2022,6,0,223.25,223.25,82.1772,-141.7974,993.5,0.4,0.6,yes,yes,yes,300534060954360,SVP-BA,EC,RCAF/ICE-PPR,North
2022-08-11T07:00:02Z,2022,7,0,223.2917,223.25,82.1772,-141.7974,993.3,0.4,0.6,yes,yes,yes,300534060954360,SVP-BA,EC,RCAF/ICE-PPR,North
2022-08-11T07:59:57Z,2022,8,0,223.3333,223.25,82.1772,-141.7974,993.1,0.2,0.3,yes,yes,yes,300534060954360,SVP-BA,EC,RCAF/ICE-PPR,North
2022-08-11T09:00:00Z,2022,9,0,223.375,223.375,82.185,-141.7958,992.9,0.1,0.1,yes,yes,yes,300534060954360,SVP-BA,EC,RCAF/ICE-PPR,North
2022-08-11T10:00:02Z,2022,10,0,223.4167,223.375,82.185,-141.7958,992.7,0.0,0.1,yes,yes,yes,300534060954360,SVP-BA,EC,RCAF/ICE-PPR,North
2022-08-11T10:59:57Z,2022,11,0,223.4583,223.375,82.185,-141.7958,992.5,0.0,0.0,yes,yes,yes,300534060954360,SVP-BA,EC,RCAF/ICE-PPR,North
2022-08-11T12:00:00Z,2022,12,0,223.5,223.5,82.1898,-141.8202,992.1,0.1,0.1,yes,yes,yes,300534060954360,SVP-BA,EC,RCAF/ICE-PPR,North
2022-08-11T13:00:02Z,2022,13,0,223.5417,223.5,82.1898,-141.8202,991.7,0.2,0.3,yes,yes,yes,300534060954360,SVP-BA,EC,RCAF/ICE-PPR,North
2022-08-11T13:59:57Z,2022,14,0,223.5833,223.5,82.1898,-141.8202,991.1,0.4,0.7,yes,yes,yes,300534060954360,SVP-BA,EC,RCAF/ICE-PPR,North
2022-08-11T15:00:00Z,2022,15,0,223.625,223.625,82.1932,-141.8784,990.5,0.6,1.2,yes,yes,yes,300534060954360,SVP-BA,EC,RCAF/ICE-PPR,North
2022-08-11T16:00:02Z,2022,16,0,223.6667,223.625,82.1932,-141.8784,990.2,0.7,1.6,yes,yes,yes,300534060954360,SVP-BA,EC,RCAF/ICE-PPR,North
2022-08-11T16:59:57Z,2022,17,0,223.7083,223.625,82.1932,-141.8784,990.1,0.8,2.2,yes,yes,yes,300534060954360,SVP-BA,EC,RCAF/ICE-PPR,North
2022-08-11T18:00:00Z,2022,18,0,223.75,223.75,82.1974,-141.9426,989.9,0.9,1.9,yes,yes,yes,300534060954360,SVP-BA,EC,RCAF/ICE-PPR,North
2022-08-11T19:00:02Z,2022,19,0,223.7917,223.75,82.1974,-141.9426,989.7,1.0,2.1,yes,yes,yes,300534060954360,SVP-BA,EC,RCAF/ICE-PPR,North
2022-08-11T19:59:57Z,2022,20,0,223.8333,223.75,82.1974,-141.9426,989.6,1.0,2.2,yes,yes,yes,300534060954360,SVP-BA,EC,RCAF/ICE-PPR,North
2022-08-11T21:00:00Z,2022,21,0,223.875,223.875,82.2002,-142.0104,989.5,1.1,2.2,yes,yes,yes,300534060954360,SVP-BA,EC,RCAF/ICE-PPR,North
2022-08-11T22:00:02Z,2022,22,0,223.9167,223.875,82.2002,-142.0104,989.5,1.1,2.1,yes,yes,yes,300534060954360,SVP-BA,EC,RCAF/ICE-PPR,North
2022-08-11T22:59:57Z,2022,23,0,223.9583,223.875,82.2002,-142.0104,989.5,1.0,2.2,yes,yes,yes,300534060954360,SVP-BA,EC,RCAF/ICE-PPR,North
2022-08-12T00:00:00Z,2022,0,0,224.0,224.0,82.1998,-142.0962,989.4,1.1,2.2,yes,yes,yes,300534060954360,SVP-BA,EC,RCAF/ICE-PPR,North
2022-08-12T01:00:02Z,2022,1,0,224.0417,224.0,82.1998,-142.0962,989.1,1.0,1.8,yes,yes,yes,300534060954360,SVP-BA,EC,RCAF/ICE-PPR,North
2022-08-12T01:59:57Z,2022,2,0,224.0833,224.0,82.1998,-142.0962,989.1,0.9,1.8,yes,yes,yes,300534060954360,SVP-BA,EC,RCAF/ICE-PPR,North
2022-08-12T03:00:00Z,2022,3,0,224.125,224.125,82.1992,-142.1774,989.1,0.8,1.6,yes,yes,yes,300534060954360,SVP-BA,EC,RCAF/ICE-PPR,North
2022-08-12T04:00:02Z,2022,4,0,224.1667,224.125,82.1992,-142.1774,989.3,0.9,1.6,yes,yes,yes,300534060954360,SVP-BA,EC,RCAF/ICE-PPR,North
2022-08-12T04:59:57Z,2022,5,0,224.2083,224.125,82.1992,-142.1774,989.5,0.9,1.8,yes,yes,yes,300534060954360,SVP-BA,EC,RCAF/ICE-PPR,North
2022-08-12T06:00:00Z,2022,6,0,224.25,224.25,82.2022,-142.2376,989.9,0.6,0.9,yes,yes,yes,300534060954360,SVP-BA,EC,RCAF/ICE-PPR,North
2022-08-12T07:00:02Z,2022,7,0,224.2917,224.25,82.2022,-142.2376,990.2,0.4,0.5,yes,yes,yes,300534060954360,SVP-BA,EC,RCAF/ICE-PPR,North
2022-08-12T07:59:57Z,2022,8,0,224.3333,224.25,82.2022,-142.2376,990.6,0.1,0.3,yes,yes,yes,300534060954360,SVP-BA,EC,RCAF/ICE-PPR,North
2022-08-12T09:00:00Z,2022,9,0,224.375,224.375,82.2064,-142.271,991.0,0.1,0.3,yes,yes,yes,300534060954360,SVP-BA,EC,RCAF/ICE-PPR,North
2022-08-12T10:00:02Z,2022,10,0,224.4167,224.375,82.2064,-142.271,991.3,0.2,0.5,yes,yes,yes,300534060954360,SVP-BA,EC,RCAF/ICE-PPR,North
2022-08-12T10:59:57Z,2022,11,0,224.4583,224.375,82.2064,-142.271,991.5,0.1,0.2,yes,yes,yes,300534060954360,SVP-BA,EC,RCAF/ICE-PPR,North
2022-08-12T12:00:00Z,2022,12,0,224.5,224.5,82.207,-142.3438,991.7,0.3,0.6,yes,yes,yes,300534060954360,SVP-BA,EC,RCAF/ICE-PPR,North
2022-08-12T13:00:02Z,2022,13,0,224.5417,224.5,82.207,-142.3438,991.9,0.3,0.6,yes,yes,yes,300534060954360,SVP-BA,EC,RCAF/ICE-PPR,North
2022-08-12T13:59:57Z,2022,14,0,224.5833,224.5,82.207,-142.3438,992.1,0.3,0.6,yes,yes,yes,300534060954360,SVP-BA,EC,RCAF/ICE-PPR,North
2022-08-12T15:00:00Z,2022,15,0,224.625,224.625,82.2098,-142.4392,992.3,0.5,1.0,yes,yes,yes,300534060954360,SVP-BA,EC,RCAF/ICE-PPR,North
2022-08-12T16:00:02Z,2022,16,0,224.6667,224.625,82.2098,-142.4392,992.7,0.3,0.9,yes,yes,yes,300534060954360,SVP-BA,EC,RCAF/ICE-PPR,North
2022-08-12T16:59:57Z,2022,17,0,224.7083,224.625,82.2098,-142.4392,993.1,0.2,0.8,yes,yes,yes,300534060954360,SVP-BA,EC,RCAF/ICE-PPR,North
2022-08-12T18:00:00Z,2022,18,0,224.75,224.75,82.2204,-142.5034,993.7,0.3,1.4,yes,yes,yes,300534060954360,SVP-BA,EC,RCAF/ICE-PPR,North
2022-08-12T19:00:02Z,2022,19,0,224.7917,224.75,82.2204,-142.5034,994.0,1.4,2.6,yes,yes,yes,300534060954360,SVP-BA,EC,RCAF/ICE-PPR,North
2022-08-12T19:59:57Z,2022,20,0,224.8333,224.75,82.2204,-142.5034,994.1,0.9,2.1,yes,yes,yes,300534060954360,SVP-BA,EC,RCAF/ICE-PPR,North
2022-08-12T21:00:00Z,2022,21,0,224.875,224.875,82.2282,-142.5298,994.3,1.1,2.6,yes,yes,yes,300534060954360,SVP-BA,EC,RCAF/ICE-PPR,North
2022-08-12T22:00:02Z,2022,22,0,224.9167,224.875,82.2282,-142.5298,994.6,0.9,2.1,yes,yes,yes,300534060954360,SVP-BA,EC,RCAF/ICE-PPR,North
2022-08-12T22:59:57Z,2022,23,0,224.9583,224.875,82.2282,-142.5298,995.2,0.8,1.8,yes,yes,yes,300534060954360,SVP-BA,EC,RCAF/ICE-PPR,North
2022-08-13T00:00:00Z,2022,0,0,225.0,225.0,82.235,-142.5864,995.6,0.9,2.2,yes,yes,yes,300534060954360,SVP-BA,EC,RCAF/ICE-PPR,North
2022-08-13T01:00:02Z,2022,1,0,225.0417,225.0,82.235,-142.5864,996.0,0.8,2.0,yes,yes,yes,300534060954360,SVP-BA,EC,RCAF/ICE-PPR,North
2022-08-13T01:59:57Z,2022,2,0,225.0833,225.0,82.235,-142.5864,996.1,0.8,1.7,yes,yes,yes,300534060954360,SVP-BA,EC,RCAF/ICE-PPR,North
2022-08-13T03:00:00Z,2022,3,0,225.125,225.125,82.2466,-142.6482,996.4,0.7,1.6,yes,yes,yes,300534060954360,SVP-BA,EC,RCAF/ICE-PPR,North
2022-08-13T04:00:02Z,2022,4,0,225.1667,225.125,82.2466,-142.6482,996.6,0.6,1.2,yes,yes,yes,300534060954360,SVP-BA,EC,RCAF/ICE-PPR,North
2022-08-13T04:59:57Z,2022,5,0,225.2083,225.125,82.2466,-142.6482,996.9,0.5,0.7,yes,yes,yes,300534060954360,SVP-BA,EC,RCAF/ICE-PPR,North
2022-08-13T06:00:00Z,2022,6,0,225.25,225.25,82.2562,-142.6796,997.1,0.3,0.5,yes,yes,yes,300534060954360,SVP-BA,EC,RCAF/ICE-PPR,North
2022-08-13T07:00:02Z,2022,7,0,225.2917,225.25,82.2562,-142.6796,997.3,0.3,0.5,yes,yes,yes,300534060954360,SVP-BA,EC,RCAF/ICE-PPR,North
2022-08-13T07:59:57Z,2022,8,0,225.3333,225.25,82.2562,-142.6796,997.6,0.3,0.5,yes,yes,yes,300534060954360,SVP-BA,EC,RCAF/ICE-PPR,North
2022-08-13T09:00:00Z,2022,9,0,225.375,225.375,82.2596,-142.7058,997.6,0.2,0.2,yes,yes,yes,300534060954360,SVP-BA,EC,RCAF/ICE-PPR,North
2022-08-13T10:00:02Z,2022,10,0,225.4167,225.375,82.2596,-142.7058,998.0,0.2,0.3,yes,yes,yes,300534060954360,SVP-BA,EC,RCAF/ICE-PPR,North
2022-08-13T10:59:57Z,2022,11,0,225.4583,225.375,82.2596,-142.7058,998.2,0.2,0.3,yes,yes,yes,300534060954360,SVP-BA,EC,RCAF/ICE-PPR,North
2022-08-13T12:00:00Z,2022,12,0,225.5,225.5,82.2612,-142.7546,998.4,0.2,0.1,yes,yes,yes,300534060954360,SVP-BA,EC,RCAF/ICE-PPR,North
2022-08-13T13:00:02Z,2022,13,0,225.5417,225.5,82.2612,-142.7546,998.5,0.1,0.0,yes,yes,yes,300534060954360,SVP-BA,EC,RCAF/ICE-PPR,North
2022-08-13T13:59:57Z,2022,14,0,225.5833,225.5,82.2612,-142.7546,998.6,0.3,0.7,yes,yes,yes,300534060954360,SVP-BA,EC,RCAF/ICE-PPR,North
2022-08-13T15:00:00Z,2022,15,0,225.625,225.625,82.2644,-142.8074,998.7,0.6,1.2,yes,yes,yes,300534060954360,SVP-BA,EC,RCAF/ICE-PPR,North
2022-08-13T16:00:02Z,2022,16,0,225.6667,225.625,82.2644,-142.8074,998.6,0.8,1.6,yes,yes,yes,300534060954360,SVP-BA,EC,RCAF/ICE-PPR,North
2022-08-13T16:59:57Z,2022,17,0,225.7083,225.625,82.2644,-142.8074,998.8,0.7,1.4,yes,yes,yes,300534060954360,SVP-BA,EC,RCAF/ICE-PPR,North
2022-08-13T18:00:00Z,2022,18,0,225.75,225.75,82.2648,-142.8384,998.9,0.8,2.0,yes,yes,yes,300534060954360,SVP-BA,EC,RCAF/ICE-PPR,North
2022-08-13T19:00:02Z,2022,19,0,225.7917,225.75,82.2648,-142.8384,999.0,0.9,2.4,yes,yes,yes,300534060954360,SVP-BA,EC,RCAF/ICE-PPR,North
2022-08-13T19:59:57Z,2022,20,0,225.8333,225.75,82.2648,-142.8384,999.0,1.1,2.8,yes,yes,yes,300534060954360,SVP-BA,EC,RCAF/ICE-PPR,North
2022-08-13T21:00:00Z,2022,21,0,225.875,225.875,82.2608,-142.8846,999.3,1.1,3.0,yes,yes,yes,300534060954360,SVP-BA,EC,RCAF/ICE-PPR,North
2022-08-13T22:00:02Z,2022,22,0,225.9167,225.875,82.2608,-142.8846,999.4,0.9,1.9,yes,yes,yes,300534060954360,SVP-BA,EC,RCAF/ICE-PPR,North
2022-08-13T22:59:57Z,2022,23,0,225.9583,225.875,82.2608,-142.8846,999.6,1.2,2.6,yes,yes,yes,300534060954360,SVP-BA,EC,RCAF/ICE-PPR,North
2022-08-14T00:00:00Z,2022,0,0,226.0,226.0,82.2572,-142.9498,999.7,1.1,2.1,yes,yes,yes,300534060954360,SVP-BA,EC,RCAF/ICE-PPR,North
2022-08-14T01:00:02Z,2022,1,0,226.0417,226.0,82.2572,-142.9498,1000.0,1.0,2.0,yes,yes,yes,300534060954360,SVP-BA,EC,RCAF/ICE-PPR,North
2022-08-14T01:59:57Z,2022,2,0,226.0833,226.0,82.2572,-142.9498,1000.3,0.9,1.8,yes,yes,yes,300534060954360,SVP-BA,EC,RCAF/ICE-PPR,North
2022-08-14T03:00:00Z,2022,3,0,226.125,226.125,82.253,-142.9954,1000.5,0.8,1.1,yes,yes,yes,300534060954360,SVP-BA,EC,RCAF/ICE-PPR,North
2022-08-14T04:00:02Z,2022,4,0,226.1667,226.125,82.253,-142.9954,1000.6,0.8,1.3,yes,yes,yes,300534060954360,SVP-BA,EC,RCAF/ICE-PPR,North
2022-08-14T04:59:57Z,2022,5,0,226.2083,226.125,82.253,-142.9954,1000.8,0.8,1.1,yes,yes,yes,300534060954360,SVP-BA,EC,RCAF/ICE-PPR,North
2022-08-14T06:00:00Z,2022,6,0,226.25,226.25,82.2468,-143.007,1001.0,0.8,1.0,yes,yes,yes,300534060954360,SVP-BA,EC,RCAF/ICE-PPR,North
2022-08-14T07:00:02Z,2022,7,0,226.2917,226.25,82.2468,-143.007,1001.2,0.7,0.7,yes,yes,yes,300534060954360,SVP-BA,EC,RCAF/ICE-PPR,North
2022-08-14T07:59:57Z,2022,8,0,226.3333,226.25,82.2468,-143.007,1001.4,0.6,0.6,yes,yes,yes,300534060954360,SVP-BA,EC,RCAF/ICE-PPR,North
2022-08-14T09:00:00Z,2022,9,0,226.375,226.375,82.2396,-143.0156,1001.7,0.6,0.5,yes,yes,yes,300534060954360,SVP-BA,EC,RCAF/ICE-PPR,North
2022-08-14T10:00:02Z,2022,10,0,226.4167,226.375,82.2396,-143.0156,1002.1,0.6,0.6,yes,yes,yes,300534060954360,SVP-BA,EC,RCAF/ICE-PPR,North
2022-08-14T10:59:57Z,2022,11,0,226.4583,226.375,82.2396,-143.0156,1002.3,0.6,0.6,yes,yes,yes,300534060954360,SVP-BA,EC,RCAF/ICE-PPR,North
2022-08-14T12:00:00Z,2022,12,0,226.5,226.5,82.2336,-143.0342,1002.7,0.6,0.5,yes,yes,yes,300534060954360,SVP-BA,EC,RCAF/ICE-PPR,North
2022-08-14T13:00:02Z,2022,13,0,226.5417,226.5,82.2336,-143.0342,1003.1,0.6,0.5,yes,yes,yes,300534060954360,SVP-BA,EC,RCAF/ICE-PPR,North
2022-08-14T13:59:57Z,2022,14,0,226.5833,226.5,82.2336,-143.0342,1003.3,0.4,-0.1,yes,yes,yes,300534060954360,SVP-BA,EC,RCAF/ICE-PPR,North
2022-08-14T15:00:00Z,2022,15,0,226.625,226.625,82.2306,-143.0434,1003.4,0.5,-0.3,yes,yes,yes,300534060954360,SVP-BA,EC,RCAF/ICE-PPR,North
2022-08-14T16:00:02Z,2022,16,0,226.6667,226.625,82.2306,-143.0434,1003.6,1.8,-0.2,yes,yes,yes,300534060954360,SVP-BA,EC,RCAF/ICE-PPR,North
2022-08-14T16:59:57Z,2022,17,0,226.7083,226.625,82.2306,-143.0434,1003.9,1.1,0.0,yes,yes,yes,300534060954360,SVP-BA,EC,RCAF/ICE-PPR,North
2022-08-14T18:00:00Z,2022,18,0,226.75,226.75,82.2274,-143.0304,1004.2,0.9,0.6,yes,yes,yes,300534060954360,SVP-BA,EC,RCAF/ICE-PPR,North
2022-08-14T19:00:02Z,2022,19,0,226.7917,226.75,82.2274,-143.0304,1004.4,1.8,1.2,yes,yes,yes,300534060954360,SVP-BA,EC,RCAF/ICE-PPR,North
2022-08-14T19:59:57Z,2022,20,0,226.8333,226.75,82.2274,-143.0304,1004.9,1.8,2.6,yes,yes,yes,300534060954360,SVP-BA,EC,RCAF/ICE-PPR,North
2022-08-14T21:00:00Z,2022,21,0,226.875,226.875,82.2242,-143.0106,1005.0,2.2,3.5,yes,yes,yes,300534060954360,SVP-BA,EC,RCAF/ICE-PPR,North
2022-08-14T22:00:02Z,2022,22,0,226.9167,226.875,82.2242,-143.0106,1005.4,2.4,4.4,yes,yes,yes,300534060954360,SVP-BA,EC,RCAF/ICE-PPR,North
2022-08-14T22:59:57Z,2022,23,0,226.9583,226.875,82.2242,-143.0106,1005.7,2.1,3.4,yes,yes,yes,300534060954360,SVP-BA,EC,RCAF/ICE-PPR,North
2022-08-15T00:00:00Z,2022,0,0,227.0,227.0,82.222,-143.002,1006.1,2.0,3.4,yes,yes,yes,300534060954360,SVP-BA,EC,RCAF/ICE-PPR,North
2022-08-15T01:00:02Z,2022,1,0,227.0417,227.0,82.222,-143.002,1006.5,2.0,3.3,yes,yes,yes,300534060954360,SVP-BA,EC,RCAF/ICE-PPR,North
2022-08-15T01:59:57Z,2022,2,0,227.0833,227.0,82.222,-143.002,1006.8,1.7,2.7,yes,yes,yes,300534060954360,SVP-BA,EC,RCAF/ICE-PPR,North
2022-08-15T03:00:00Z,2022,3,0,227.125,227.125,82.2214,-142.9886,1006.9,1.5,2.3,yes,yes,yes,300534060954360,SVP-BA,EC,RCAF/ICE-PPR,North
2022-08-15T04:00:02Z,2022,4,0,227.1667,227.125,82.2214,-142.9886,1007.1,1.4,2.0,yes,yes,yes,300534060954360,SVP-BA,EC,RCAF/ICE-PPR,North
2022-08-15T04:59:57Z,2022,5,0,227.2083,227.125,82.2214,-142.9886,1007.4,1.1,1.4,yes,yes,yes,300534060954360,SVP-BA,EC,RCAF/ICE-PPR,North
2022-08-15T06:00:00Z,2022,6,0,227.25,227.25,82.2198,-142.9606,1007.6,1.3,1.8,yes,yes,yes,300534060954360,SVP-BA,EC,RCAF/ICE-PPR,North
2022-08-15T07:00:02Z,2022,7,0,227.2917,227.25,82.2198,-142.9606,1008.0,1.1,1.4,yes,yes,yes,300534060954360,SVP-BA,EC,RCAF/ICE-PPR,North
2022-08-15T07:59:57Z,2022,8,0,227.3333,227.25,82.2198,-142.9606,1008.3,0.9,1.1,yes,yes,yes,300534060954360,SVP-BA,EC,RCAF/ICE-PPR,North
2022-08-15T09:00:00Z,2022,9,0,227.375,227.375,82.2164,-142.9366,1008.5,0.9,1.0,yes,yes,yes,300534060954360,SVP-BA,EC,RCAF/ICE-PPR,North
2022-08-15T10:00:02Z,2022,10,0,227.4167,227.375,82.2164,-142.9366,1008.9,0.9,1.0,yes,yes,yes,300534060954360,SVP-BA,EC,RCAF/ICE-PPR,North
2022-08-15T10:59:57Z,2022,11,0,227.4583,227.375,82.2164,-142.9366,1009.1,0.8,1.0,yes,yes,yes,300534060954360,SVP-BA,EC,RCAF/ICE-PPR,North
2022-08-15T12:00:00Z,2022,12,0,227.5,227.5,82.2142,-142.9254,1009.3,0.9,1.2,yes,yes,yes,300534060954360,SVP-BA,EC,RCAF/ICE-PPR,North
2022-08-15T13:00:02Z,2022,13,0,227.5417,227.5,82.2142,-142.9254,1009.5,1.0,1.4,yes,yes,yes,300534060954360,SVP-BA,EC,RCAF/ICE-PPR,North
2022-08-15T13:59:57Z,2022,14,0,227.5833,227.5,82.2142,-142.9254,1009.6,1.1,1.3,yes,yes,yes,300534060954360,SVP-BA,EC,RCAF/ICE-PPR,North
2022-08-15T15:00:00Z,2022,15,0,227.625,227.625,82.2152,-142.9128,1009.9,1.3,1.8,yes,yes,yes,300534060954360,SVP-BA,EC,RCAF/ICE-PPR,North
2022-08-15T16:00:02Z,2022,16,0,227.6667,227.625,82.2152,-142.9128,1010.0,1.4,2.0,yes,yes,yes,300534060954360,SVP-BA,EC,RCAF/ICE-PPR,North
2022-08-15T16:59:57Z,2022,17,0,227.7083,227.625,82.2152,-142.9128,1010.0,2.0,2.7,yes,yes,yes,300534060954360,SVP-BA,EC,RCAF/ICE-PPR,North
2022-08-15T18:00:00Z,2022,18,0,227.75,227.75,82.2152,-142.888,1010.3,2.1,3.4,yes,yes,yes,300534060954360,SVP-BA,EC,RCAF/ICE-PPR,North
2022-08-15T19:00:02Z,2022,19,0,227.7917,227.75,82.2152,-142.888,1010.6,2.1,3.7,yes,yes,yes,300534060954360,SVP-BA,EC,RCAF/ICE-PPR,North
2022-08-15T19:59:57Z,2022,20,0,227.8333,227.75,82.2152,-142.888,1010.9,2.3,3.7,yes,yes,yes,300534060954360,SVP-BA,EC,RCAF/ICE-PPR,North
2022-08-15T21:00:00Z,2022,21,0,227.875,227.875,82.2132,-142.8686,1011.0,2.7,4.6,yes,yes,yes,300534060954360,SVP-BA,EC,RCAF/ICE-PPR,North
2022-08-15T22:00:02Z,2022,22,0,227.9167,227.875,82.2132,-142.8686,1011.3,2.7,4.8,yes,yes,yes,300534060954360,SVP-BA,EC,RCAF/ICE-PPR,North
2022-08-15T22:59:57Z,2022,23,0,227.9583,227.875,82.2132,-142.8686,1011.6,2.6,5.4,yes,yes,yes,300534060954360,SVP-BA,EC,RCAF/ICE-PPR,North
2022-08-16T00:00:00Z,2022,0,0,228.0,228.0,82.2122,-142.8686,1011.8,2.3,5.1,yes,yes,yes,300534060954360,SVP-BA,EC,RCAF/ICE-PPR,North
2022-08-16T01:00:02Z,2022,1,0,228.0417,228.0,82.2122,-142.8686,1011.9,2.2,3.7,yes,yes,yes,300534060954360,SVP-BA,EC,RCAF/ICE-PPR,North
2022-08-16T01:59:57Z,2022,2,0,228.0833,228.0,82.2122,-142.8686,1012.0,2.0,2.7,yes,yes,yes,300534060954360,SVP-BA,EC,RCAF/ICE-PPR,North
2022-08-16T03:00:00Z,2022,3,0,228.125,228.125,82.2144,-142.8538,1012.0,1.7,2.2,yes,yes,yes,300534060954360,SVP-BA,EC,RCAF/ICE-PPR,North
2022-08-16T04:00:02Z,2022,4,0,228.1667,228.125,82.2144,-142.8538,1012.0,1.5,2.0,yes,yes,yes,300534060954360,SVP-BA,EC,RCAF/ICE-PPR,North
2022-08-16T04:59:57Z,2022,5,0,228.2083,228.125,82.2144,-142.8538,1012.4,1.3,1.7,yes,yes,yes,300534060954360,SVP-BA,EC,RCAF/ICE-PPR,North
2022-08-16T06:00:00Z,2022,6,0,228.25,228.25,82.213,-142.8248,1012.4,1.2,1.5,yes,yes,yes,300534060954360,SVP-BA,EC,RCAF/ICE-PPR,North
2022-08-16T07:00:02Z,2022,7,0,228.2917,228.25,82.213,-142.8248,1012.5,1.1,1.2,yes,yes,yes,300534060954360,SVP-BA,EC,RCAF/ICE-PPR,North
2022-08-16T07:59:57Z,2022,8,0,228.3333,228.25,82.213,-142.8248,1012.7,0.9,1.0,yes,yes,yes,300534060954360,SVP-BA,EC,RCAF/ICE-PPR,North
2022-08-16T09:00:00Z,2022,9,0,228.375,228.375,82.2098,-142.8136,1012.8,0.8,0.8,yes,yes,yes,300534060954360,SVP-BA,EC,RCAF/ICE-PPR,North
2022-08-16T10:00:02Z,2022,10,0,228.4167,228.375,82.2098,-142.8136,1013.0,0.8,0.8,yes,yes,yes,300534060954360,SVP-BA,EC,RCAF/ICE-PPR,North
2022-08-16T10:59:57Z,2022,11,0,228.4583,228.375,82.2098,-142.8136,1013.1,0.8,0.8,yes,yes,yes,300534060954360,SVP-BA,EC,RCAF/ICE-PPR,North
2022-08-16T12:00:00Z,2022,12,0,228.5,228.5,82.2086,-142.805,1013.0,0.8,0.8,yes,yes,yes,300534060954360,SVP-BA,EC,RCAF/ICE-PPR,North
2022-08-16T13:00:02Z,2022,13,0,228.5417,228.5,82.2086,-142.805,1012.9,0.9,1.0,yes,yes,yes,300534060954360,SVP-BA,EC,RCAF/ICE-PPR,North
2022-08-16T13:59:57Z,2022,14,0,228.5833,228.5,82.2086,-142.805,1013.1,1.1,1.2,yes,yes,yes,300534060954360,SVP-BA,EC,RCAF/ICE-PPR,North
2022-08-16T15:00:00Z,2022,15,0,228.625,228.625,82.2076,-142.7822,1013.1,1.2,1.4,yes,yes,yes,300534060954360,SVP-BA,EC,RCAF/ICE-PPR,North
2022-08-16T16:00:02Z,2022,16,0,228.6667,228.625,82.2076,-142.7822,1013.1,1.3,1.5,yes,yes,yes,300534060954360,SVP-BA,EC,RCAF/ICE-PPR,North
2022-08-16T16:59:57Z,2022,17,0,228.7083,228.625,82.2076,-142.7822,1013.2,1.4,1.7,yes,yes,yes,300534060954360,SVP-BA,EC,RCAF/ICE-PPR,North
2022-08-16T18:00:00Z,2022,18,0,228.75,228.75,82.205,-142.7564,1013.1,1.5,1.7,yes,yes,yes,300534060954360,SVP-BA,EC,RCAF/ICE-PPR,North
2022-08-16T19:00:02Z,2022,19,0,228.7917,228.75,82.205,-142.7564,1013.2,1.7,2.0,yes,yes,yes,300534060954360,SVP-BA,EC,RCAF/ICE-PPR,North
2022-08-16T19:59:57Z,2022,20,0,228.8333,228.75,82.205,-142.7564,1013.1,2.0,2.7,yes,yes,yes,300534060954360,SVP-BA,EC,RCAF/ICE-PPR,North
2022-08-16T21:00:00Z,2022,21,0,228.875,228.875,82.2002,-142.7302,1013.2,1.9,2.3,yes,yes,yes,300534060954360,SVP-BA,EC,RCAF/ICE-PPR,North
2022-08-16T22:00:02Z,2022,22,0,228.9167,228.875,82.2002,-142.7302,1013.2,1.9,2.4,yes,yes,yes,300534060954360,SVP-BA,EC,RCAF/ICE-PPR,North
2022-08-16T22:59:57Z,2022,23,0,228.9583,228.875,82.2002,-142.7302,1013.2,1.9,2.3,yes,yes,yes,300534060954360,SVP-BA,EC,RCAF/ICE-PPR,North
2022-08-17T00:00:00Z,2022,0,0,229.0,229.0,82.1978,-142.6992,1013.2,1.8,2.8,yes,yes,yes,300534060954360,SVP-BA,EC,RCAF/ICE-PPR,North
2022-08-17T01:00:02Z,2022,1,0,229.0417,229.0,82.1978,-142.6992,1013.0,1.2,1.4,yes,yes,yes,300534060954360,SVP-BA,EC,RCAF/ICE-PPR,North